This demonstration page uses our WeatherBlox Daily Observations layout. Learn more.

Left ArrowRight Arrow

44.8408, -93.29828

Hourly Observations for April 5, 2017

Temp ( °F °C ) Dew Point ( °F °C ) Humidity (%) Winds ( mph kmh ) Pressure ( in mb ) Visibility ( mi km ) Precip ( " mm )
12:53 am 00:53 Clear 46 7.8 27 -2.8 47 47 Calm 29.99 1016 10 16 0.00 0.00
1:53 am 01:53 Clear 43 6.1 30 -1.1 60 60 N 5 7 29.98 1015 10 16 0.00 0.00
2:53 am 02:53 Clear 40 4.4 31 -0.6 70 70 NW 3 6 29.98 1015 10 16 0.00 0.00
3:53 am 03:53 Clear 41 5 30 -1.1 65 65 N 9 15 29.95 1014 10 16 0.00 0.00
4:53 am 04:53 Mostly Cloudy 42 5.6 27 -2.8 55 55 NNE 3 6 29.96 1015 10 16 0.00 0.00
5:53 am 05:53 Mostly Cloudy 43 6.1 26 -3.3 51 51 Calm 29.98 1015 10 16 0.00 0.00
6:53 am 06:53 Cloudy 42 5.6 28 -2.2 58 58 N 9 15 29.98 1015 10 16 0.00 0.00
7:53 am 07:53 Cloudy 43 6.1 28 -2.2 56 56 N 5 7 30.01 1016 10 16 0.00 0.00
8:53 am 08:53 Cloudy 44 6.7 27 -2.8 51 51 NE 12 19 30.01 1016 10 16 0.00 0.00
9:53 am 09:53 Cloudy 46 7.8 24 -4.4 42 42 NNE 15 24 30.01 1016 10 16 0.00 0.00
10:53 am 10:53 Cloudy 47 8.3 25 -3.9 42 42 NNE 14 22 30.01 1016 10 16 0.00 0.00
11:53 am 11:53 Cloudy 48 8.9 24 -4.4 39 39 N 9 15 30.01 1016 10 16 0.00 0.00
12:53 pm 12:53 Cloudy 50 10 22 -5.6 33 33 N 12 19 29.99 1016 10 16 0.00 0.00
1:53 pm 13:53 Cloudy 50 10 22 -5.6 33 33 N 12 19 29.98 1015 10 16 0.00 0.00
2:53 pm 14:53 Cloudy 52 11.1 21 -6.1 30 30 N 9 15 29.97 1015 10 16 0.00 0.00
3:53 pm 15:53 Cloudy 54 12.2 22 -5.6 29 29 N 14 22 29.96 1015 10 16 0.00 0.00
4:53 pm 16:53 Cloudy 55 12.8 19 -7.2 24 24 N 10 17 29.96 1015 10 16 0.00 0.00
5:53 pm 17:53 Cloudy 53 11.7 19 -7.2 26 26 NE 13 20 29.96 1015 10 16 0.00 0.00
6:53 pm 18:53 Cloudy 52 11.1 18 -7.8 26 26 NNE 10 17 29.98 1015 10 16 0.00 0.00
7:53 pm 19:53 Cloudy 49 9.4 20 -6.7 32 32 NNE 7 11 29.98 1015 10 16 0.00 0.00
8:53 pm 20:53 Cloudy 49 9.4 20 -6.7 32 32 NNW 5 7 29.99 1016 10 16 0.00 0.00
9:53 pm 21:53 Cloudy 48 8.9 21 -6.1 34 34 NNE 10 17 30.01 1016 10 16 0.00 0.00
10:53 pm 22:53 Mostly Cloudy 46 7.8 21 -6.1 37 37 N 7 11 30.01 1016 10 16 0.00 0.00
11:53 pm 23:53 Mostly Cloudy 44 6.7 21 -6.1 40 40 N 7 11 30.03 1017 10 16 0.00 0.00

Powered by AerisWeather